Вернуться в каталог

BREEZE-M DEB

АктивенHEO
NORAD 38585·DEBRIS·🇷🇺 Russia

Запущен Mar 14, 2008 с Baikonur Cosmodrome

Loading…

Ближайшие Пролёты (ближайшие 24 часа)

TLE

СвежийSource: Space-Track

Эпоха: Sep 10, 2026, 17:55 UTC

1 38585U 08011AG  26253.74658371  .00016356  00000-0  34453-2 0  9990
2 38585  49.4997 348.9762 6381372 175.1048 197.1657  3.48627426182737

Отслеживайте BREEZE-M DEB в реальном времени с AllMySat

Download on the App Store